CW7849 Weather Reports


time (UTC)temp
F
wind
direction
speed
knots
gust
knots
rain 1hr
in
rain 24hr
in
rain mn
in
humidity
%
barometer
mb
20260507095903 56 279 2.6 7.8 0.00 0.00 0.00 40 1016.7
20260507095404 55 314 0.9 7.0 0.00 0.00 0.00 43 1016.6
20260507094903 55 288 2.6 7.8 0.00 0.00 0.00 42 1016.6
20260507093903 55 347 2.6 6.1 0.00 0.00 0.00 41 1016.7
20260507093403 55 340 4.3 7.8 0.00 0.00 0.00 46 1016.5
20260507092903 54 268 5.2 8.7 0.00 0.00 0.00 41 1016.4
20260507092403 55 281 1.7 5.2 0.00 0.00 0.00 40 1016.3
20260507091403 55 288 1.7 6.1 0.00 0.00 0.00 46 1016.3
20260507090404 54 293 1.7 4.3 0.00 0.00 0.00 46 1016.2
20260507085903 53 282 1.7 7.0 0.00 0.00 0.00 45 1016.2
20260507085403 53 274 3.5 7.8 0.00 0.00 0.00 43 1016.2
20260507084403 53 274 4.3 7.0 0.00 0.00 0.00 47 1016.4
20260507083903 53 271 2.6 5.2 0.00 0.00 0.00 51 1016.3
20260507083404 52 305 1.7 4.3 0.00 0.00 0.00 47 1016.2
20260507082903 52 234 5.2 7.0 0.00 0.00 0.00 47 1016.2
20260507082403 52 263 4.3 7.0 0.00 0.00 0.00 48 1016.2
20260507081903 52 267 2.6 7.8 0.00 0.00 0.00 49 1016.2
20260507081403 52 274 4.3 7.0 0.00 0.00 0.00 48 1016.2
20260507080903 52 271 1.7 6.1 0.00 0.00 0.00 51 1016.1
20260507080403 51 311 1.7 5.2 0.00 0.00 0.00 54 1016.1
20260507075403 50 282 1.7 6.1 0.00 0.00 0.00 55 1016.0
20260507074903 50 273 1.7 7.0 0.00 0.00 0.00 56 1016.0
20260507074403 50 266 1.7 6.1 0.00 0.00 0.00 58 1015.9
20260507073903 49 249 2.6 7.0 0.00 0.00 0.00 57 1015.9
20260507073404 49 264 2.6 7.0 0.00 0.00 0.00 58 1015.9
20260507072903 49 230 1.7 4.3 0.00 0.00 0.00 58 1015.9
20260507072403 48 249 2.6 5.2 0.00 0.00 0.00 61 1015.9
20260507071904 48 234 2.6 5.2 0.00 0.00 0.00 61 1015.9
20260507071404 47 264 2.6 4.3 0.00 0.00 0.00 61 1015.9
20260507070904 47 274 1.7 2.6 0.00 0.00 0.00 63 1015.8
20260507070403 47 219 3.5 7.0 0.00 0.00 0.00 62 1015.8
20260507065903 46 246 1.7 2.6 0.00 0.00 0.00 63 1015.9
20260507065403 46 275 2.6 5.2 0.00 0.00 0.00 64 1015.9
20260507064403 45 254 3.5 7.0 0.00 0.00 0.00 65 1015.8
20260507063903 45 246 2.6 6.1 0.00 0.00 0.00 68 1015.7
20260507063404 45 257 4.3 7.8 0.00 0.00 0.00 69 1015.8
20260507062904 45 248 2.6 5.2 0.00 0.00 0.00 70 1015.7
20260507061904 44 241 3.5 6.1 0.00 0.00 0.00 71 1015.7
20260507061403 43 250 4.3 6.1 0.00 0.00 0.00 72 1015.6
20260507060903 43 247 4.3 7.0 0.00 0.00 0.00 73 1015.6
20260507060403 42 239 4.3 7.8 0.00 0.00 0.00 74 1015.6
20260507055903 42 226 4.3 6.1 0.00 0.00 0.00 74 1015.6
20260507054903 41 234 4.3 6.1 0.00 0.00 0.00 75 1015.3
20260507054403 41 240 4.3 6.1 0.00 0.00 0.00 75 1015.3
20260507053903 40 234 4.3 7.0 0.00 0.00 0.00 76 1015.2
20260507053403 40 229 4.3 6.1 0.00 0.00 0.00 75 1015.1
20260507052903 40 228 4.3 6.1 0.00 0.00 0.00 76 1015.2
20260507052404 39 224 4.3 5.2 0.00 0.00 0.00 76 1015.2
20260507051904 39 231 4.3 6.1 0.00 0.00 0.00 77 1015.1
20260507050904 38 216 4.3 5.2 0.00 0.00 0.00 78 1015.0
20260507050403 38 214 2.6 4.3 0.00 0.00 0.00 79 1015.0
20260507045904 37 212 4.3 4.3 0.00 0.00 0.00 79 1014.9
20260507044903 37 202 2.6 2.6 0.00 0.00 0.00 79 1014.8
20260507044403 36 212 4.3 5.2 0.00 0.00 0.00 79 1014.8
20260507043904 36 198 1.7 2.6 0.00 0.00 0.00 79 1014.8
20260507042403 35 194 2.6 4.3 0.00 0.00 0.00 80 1014.8
20260507041903 35 197 2.6 4.3 0.00 0.00 0.00 80 1014.7
20260507041403 35 195 2.6 4.3 0.00 0.00 0.00 80 1014.7
20260507040403 34 200 2.6 4.3 0.00 0.00 0.00 80 1014.6
20260507035903 34 194 2.6 4.3 0.00 0.00 0.00 81 1014.6
20260507035404 34 191 2.6 4.3 0.00 0.00 0.00 81 1014.4
20260507034903 33 194 2.6 4.3 0.00 0.00 0.00 82 1014.4
20260507033403 32 183 0.9 2.6 0.00 0.00 0.00 82 1014.3
20260507032903 32 172 0.9 2.6 0.00 0.00 0.00 82 1014.2
20260507032403 32 175 0.9 1.7 0.00 0.00 0.00 82 1014.2
20260507031903 32 180 0.0 1.7 0.00 0.00 0.00 81 1014.3
20260507031403 32 180 0.9 1.7 0.00 0.00 0.00 81 1014.2
20260507030903 32 180 0.0 1.7 0.00 0.00 0.00 81 1014.1
20260507025905 32 180 0.0 0.0 0.00 0.00 0.00 80 1014.1
20260507024403 33 180 0.0 0.0 0.00 0.00 0.00 79 1014.0
20260507023904 33 180 0.9 1.7 0.00 0.00 0.00 79 1014.0
20260507023403 33 189 0.0 0.9 0.00 0.00 0.00 78 1014.0
20260507022904 34 189 0.0 0.9 0.00 0.00 0.00 78 1013.9
20260507022404 34 189 0.0 0.0 0.00 0.00 0.00 78 1013.9
20260507021904 34 189 0.0 0.9 0.00 0.00 0.00 78 1013.9
20260507021404 34 189 1.7 2.6 0.00 0.00 0.00 79 1013.9
20260507020903 34 204 1.7 4.3 0.00 0.00 0.00 79 1013.9
20260507020403 34 207 2.6 2.6 0.00 0.00 0.00 79 1013.9
20260507015404 34 198 2.6 4.3 0.00 0.00 0.00 80 1013.9
20260507014903 34 196 2.6 5.2 0.00 0.00 0.00 80 1013.8
20260507014403 34 202 3.5 4.3 0.00 0.00 0.00 82 1013.8
20260507013903 33 209 1.7 2.6 0.00 0.00 0.00 82 1013.7
20260507013403 33 218 1.7 2.6 0.00 0.00 0.00 81 1013.8
20260507012903 33 225 1.7 2.6 0.00 0.00 0.00 80 1013.7
20260507012404 33 219 1.7 2.6 0.00 0.00 0.00 80 1013.6
20260507011904 33 219 2.6 2.6 0.00 0.00 0.00 79 1013.6
20260507011403 34 222 1.7 2.6 0.00 0.00 0.00 78 1013.5
20260507010904 34 222 2.6 4.3 0.00 0.00 0.00 77 1013.5
20260507010404 35 221 2.6 4.3 0.00 0.00 0.00 77 1013.5
20260507005904 35 223 2.6 2.6 0.00 0.00 0.00 76 1013.3
20260507004903 35 218 2.6 2.6 0.00 0.00 0.00 76 1013.2
20260507004404 36 211 3.5 5.2 0.00 0.00 0.00 75 1013.1
20260507003903 36 217 2.6 2.6 0.00 0.00 0.00 75 1013.1
20260507003403 36 211 2.6 4.3 0.00 0.00 0.00 75 1013.2
20260507002403 36 201 2.6 2.6 0.00 0.00 0.00 76 1013.2
20260507001903 35 187 1.7 2.6 0.00 0.00 0.00 77 1013.2
20260507001404 34 120 0.9 1.7 0.00 0.00 0.00 77 1013.2
20260507000904 33 96 0.0 0.0 0.00 0.00 0.00 78 1013.1
20260507000405 33 96 0.0 0.9 0.00 0.00 0.00 77 1013.1
20260506235904 33 96 0.0 1.7 0.00 0.00 0.00 77 1013.0
20260506235403 32 96 0.9 1.7 0.00 0.00 0.00 77 1013.0
20260506234904 32 96 1.7 2.6 0.00 0.00 0.00 76 1012.9
20260506234403 32 75 0.9 1.7 0.00 0.00 0.00 76 1012.9
20260506233904 32 72 0.9 1.7 0.00 0.00 0.00 76 1012.8
20260506233403 32 56 0.0 0.0 0.00 0.00 0.00 76 1012.8
20260506232904 32 56 0.0 0.0 0.00 0.00 0.00 75 1012.8
20260506232404 32 56 0.0 0.0 0.00 0.00 0.00 75 1012.7
20260506231903 32 56 0.0 0.0 0.00 0.00 0.00 75 1012.7
20260506231404 32 56 0.0 0.0 0.00 0.00 0.00 75 1012.6
20260506230903 32 56 0.0 1.7 0.00 0.00 0.00 75 1012.5
20260506230403 32 56 0.0 1.7 0.00 0.00 0.00 75 1012.5
20260506225904 32 56 0.9 1.7 0.00 0.00 0.00 74 1012.6
20260506225403 32 56 0.9 2.6 0.00 0.00 0.00 73 1012.5
20260506224404 33 56 1.7 2.6 0.00 0.00 0.00 73 1012.4
20260506223903 33 70 1.7 2.6 0.00 0.00 0.00 72 1012.4
20260506223404 33 37 0.0 0.0 0.00 0.00 0.00 72 1012.4
20260506222904 34 37 0.0 1.7 0.00 0.00 0.00 73 1012.5
20260506222404 33 37 0.9 1.7 0.00 0.00 0.00 72 1012.4
20260506221904 34 37 0.0 0.0 0.00 0.00 0.00 71 1012.5
20260506221403 34 37 0.0 0.9 0.00 0.00 0.00 71 1012.4
20260506220904 34 37 0.9 1.7 0.00 0.00 0.00 71 1012.4
20260506215903 34 37 0.0 0.0 0.00 0.00 0.00 72 1012.4
20260506215404 35 37 0.0 0.0 0.00 0.00 0.00 72 1012.4
20260506214904 35 37 0.9 1.7 0.00 0.00 0.00 72 1012.3
20260506214403 34 37 0.9 1.7 0.00 0.00 0.00 71 1012.2
20260506213903 35 37 0.9 1.7 0.00 0.00 0.00 70 1012.2
20260506213403 35 37 0.0 1.7 0.00 0.00 0.00 71 1012.2
20260506212904 34 37 1.7 2.6 0.00 0.00 0.00 70 1012.2
20260506212403 35 37 0.9 1.7 0.00 0.00 0.00 69 1012.2
20260506211904 35 37 0.9 1.7 0.00 0.00 0.00 68 1012.2
20260506211404 36 257 0.9 1.7 0.00 0.00 0.00 68 1012.2
20260506210903 36 257 0.0 0.0 0.00 0.00 0.00 69 1012.2
20260506210404 36 257 0.0 0.0 0.00 0.00 0.00 69 1012.2
20260506205904 36 257 0.0 1.7 0.00 0.00 0.00 69 1012.2
20260506205404 36 257 0.0 2.6 0.00 0.00 0.00 68 1012.2
20260506204905 36 263 0.9 5.2 0.00 0.00 0.00 67 1012.2
20260506204404 37 60 0.0 0.0 0.00 0.00 0.00 66 1012.1
20260506203904 37 60 0.9 1.7 0.00 0.00 0.00 65 1012.1
20260506203404 37 60 0.9 1.7 0.00 0.00 0.00 63 1012.1
20260506202904 38 60 0.0 0.0 0.00 0.00 0.00 60 1012.0
20260506201903 39 60 0.0 0.0 0.00 0.00 0.00 58 1012.1
20260506201404 40 60 0.0 0.0 0.00 0.00 0.00 57 1012.1
20260506200904 41 60 0.0 0.0 0.00 0.00 0.00 57 1012.2
20260506195904 41 60 0.9 0.9 0.00 0.00 0.00 54 1012.2
20260506195403 41 60 0.9 1.7 0.00 0.00 0.00 54 1012.1
20260506194404 43 60 0.9 2.6 0.00 0.00 0.00 48 1012.1
20260506193904 45 55 0.9 1.7 0.00 0.00 0.00 47 1012.1
20260506193404 45 55 0.0 0.0 0.00 0.00 0.00 44 1012.1
20260506192904 46 55 0.0 0.0 0.00 0.00 0.00 43 1012.0
20260506192405 46 55 0.9 0.9 0.00 0.00 0.00 42 1012.0
20260506191404 47 56 1.7 2.6 0.00 0.00 0.00 40 1011.9
20260506190904 48 56 0.9 2.6 0.00 0.00 0.00 40 1011.9
20260506190404 48 56 1.7 2.6 0.00 0.00 0.00 39 1011.9
20260506185904 48 55 1.7 2.6 0.00 0.00 0.00 38 1011.8
20260506185404 48 50 0.9 2.6 0.00 0.00 0.00 38 1011.9
20260506184904 48 50 0.9 2.6 0.00 0.00 0.00 40 1011.9
20260506184404 49 50 2.6 2.6 0.00 0.00 0.00 39 1011.9
20260506183404 49 49 1.7 2.6 0.00 0.00 0.00 39 1011.8
20260506182902 50 55 1.7 2.6 0.00 0.00 0.00 39 1011.7
20260506182403 50 62 1.7 2.6 0.00 0.00 0.00 38 1011.6
20260506181403 51 58 2.6 4.3 0.00 0.00 0.00 35 1011.6
20260506180903 51 54 2.6 4.3 0.00 0.00 0.00 35 1011.5
20260506180403 51 59 1.7 4.3 0.00 0.00 0.00 35 1011.5
20260506175904 52 32 1.7 2.6 0.00 0.00 0.00 34 1011.5
20260506175403 52 13 1.7 2.6 0.00 0.00 0.00 33 1011.5
20260506174903 52 19 2.6 5.2 0.00 0.00 0.00 34 1011.4
20260506174402 52 23 1.7 4.3 0.00 0.00 0.00 36 1011.2
20260506173904 52 31 1.7 6.1 0.00 0.00 0.00 36 1011.3
20260506173403 52 39 2.6 5.2 0.00 0.00 0.00 35 1011.3
20260506171903 53 48 3.5 7.8 0.00 0.00 0.00 33 1011.3
20260506171403 53 40 3.5 8.7 0.00 0.00 0.00 34 1011.3
20260506170903 53 41 6.1 10.4 0.00 0.00 0.00 32 1011.2
20260506170403 54 47 6.1 10.4 0.00 0.00 0.00 32 1011.2
20260506165903 55 37 2.6 4.3 0.00 0.00 0.00 31 1011.2
20260506164904 55 10 3.5 6.1 0.00 0.00 0.00 32 1011.2
20260506164403 55 13 3.5 7.0 0.00 0.00 0.00 31 1011.2
20260506163903 55 19 1.7 7.0 0.00 0.00 0.00 33 1011.2
20260506163403 55 19 5.2 8.7 0.00 0.00 0.00 32 1011.2
20260506162904 55 4 3.5 6.1 0.00 0.00 0.00 31 1011.2
20260506162403 55 18 3.5 7.0 0.00 0.00 0.00 31 1011.3
20260506161903 56 2 4.3 10.4 0.00 0.00 0.00 32 1011.3
20260506161403 55 340 2.6 7.8 0.00 0.00 0.00 32 1011.3
20260506160902 55 353 2.6 8.7 0.00 0.00 0.00 33 1011.3
20260506160403 55 337 2.6 7.8 0.00 0.00 0.00 32 1011.3
20260506155903 55 351 4.3 8.7 0.00 0.00 0.00 32 1011.2
20260506154903 55 336 4.3 7.8 0.00 0.00 0.00 32 1011.3
20260506154402 55 350 3.5 8.7 0.00 0.00 0.00 33 1011.2
20260506153903 55 8 3.5 10.4 0.00 0.00 0.00 34 1011.2
20260506153403 55 2 5.2 12.2 0.00 0.00 0.00 33 1011.2
20260506152903 55 13 2.6 10.4 0.00 0.00 0.00 34 1011.2
20260506152403 54 9 4.3 8.7 0.00 0.00 0.00 33 1011.3
20260506151403 55 18 5.2 10.4 0.00 0.00 0.00 32 1011.4
20260506150903 55 354 5.2 12.2 0.00 0.00 0.00 34 1011.4
20260506150403 55 353 6.1 12.2 0.00 0.00 0.00 32 1011.5
20260506145903 55 356 5.2 13.0 0.00 0.00 0.00 33 1011.6
20260506145403 55 347 5.2 10.4 0.00 0.00 0.00 32 1011.6
20260506144903 55 357 4.3 8.7 0.00 0.00 0.00 35 1011.7
20260506144403 55 3 7.0 12.2 0.00 0.00 0.00 34 1011.7
20260506143903 55 7 6.1 10.4 0.00 0.00 0.00 30 1011.8
20260506143403 55 3 6.1 8.7 0.00 0.00 0.00 33 1011.7
20260506142402 55 343 5.2 11.3 0.00 0.00 0.00 33 1011.7
20260506141902 55 345 5.2 10.4 0.00 0.00 0.00 34 1011.6
20260506140904 55 351 6.1 12.2 0.00 0.00 0.00 30 1011.7
20260506135903 56 335 5.2 11.3 0.00 0.00 0.00 32 1011.8
20260506134903 56 359 4.3 13.0 0.00 0.00 0.00 35 1012.0
20260506132903 57 328 2.6 6.1 0.00 0.00 0.00 26 1011.9
20260506132403 58 277 1.7 7.0 0.00 0.00 0.00 27 1012.0
20260506131903 57 273 2.6 5.2 0.00 0.00 0.00 22 1012.1
20260506131403 57 176 2.6 5.2 0.00 0.00 0.00 22 1012.2
20260506130903 58 201 4.3 7.0 0.00 0.00 0.00 24 1012.4
20260506130403 57 262 2.6 5.2 0.00 0.00 0.00 26 1012.4
20260506125903 57 143 2.6 7.8 0.00 0.00 0.00 21 1012.5
20260506125403 58 196 6.1 10.4 0.00 0.00 0.00 21 1012.5
20260506124903 57 225 5.2 7.8 0.00 0.00 0.00 21 1012.4
20260506124404 58 227 6.1 10.4 0.00 0.00 0.00 21 1012.4
20260506123903 58 157 7.0 10.4 0.00 0.00 0.00 20 1012.4
20260506123403 58 176 7.8 12.2 0.00 0.00 0.00 20 1012.5
20260506122903 57 202 6.1 8.7 0.00 0.00 0.00 24 1012.6
20260506122403 56 64 0.9 5.2 0.00 0.00 0.00 29 1012.6
20260506120903 56 18 0.9 2.6 0.00 0.00 0.00 27 1012.8
20260506115903 56 116 3.5 8.7 0.00 0.00 0.00 23 1012.9
20260506115404 56 130 8.7 12.2 0.00 0.00 0.00 22 1012.8
20260506114903 56 137 6.1 11.3 0.00 0.00 0.00 23 1012.8
20260506114403 56 166 2.6 7.8 0.00 0.00 0.00 26 1012.8
20260506113903 56 131 5.2 10.4 0.00 0.00 0.00 23 1012.9
20260506113402 57 71 3.5 7.8 0.00 0.00 0.00 23 1012.8
20260506112902 57 158 6.1 11.3 0.00 0.00 0.00 24 1012.8
20260506112403 56 129 8.7 11.3 0.00 0.00 0.00 25 1012.7
20260506111904 55 50 7.8 10.4 0.00 0.00 0.00 27 1012.8
20260506111404 55 63 6.1 13.0 0.00 0.00 0.00 25 1012.9
20260506105904 55 60 5.2 7.0 0.00 0.00 0.00 26 1013.1
20260506105403 55 172 0.9 5.2 0.00 0.00 0.00 25 1013.0
20260506104904 56 181 5.2 10.4 0.00 0.00 0.00 24 1013.1
20260506104403 56 94 9.6 13.9 0.00 0.00 0.00 26 1013.2
20260506103403 54 62 4.3 10.4 0.00 0.00 0.00 25 1013.2
20260506102903 54 145 6.1 11.3 0.00 0.00 0.00 25 1013.2
20260506102404 55 134 2.6 11.3 0.00 0.00 0.00 27 1013.2
20260506101903 55 70 7.8 10.4 0.00 0.00 0.00 26 1013.3
20260506101403 55 103 5.2 7.8 0.00 0.00 0.00 25 1013.5
20260506100903 55 224 4.3 7.0 0.00 0.00 0.00 28 1013.4
20260506100403 55 87 6.1 8.7 0.00 0.00 0.00 26 1013.5